Voltar ao catálogo

STARLINK-4207

AtivoComunicaçõesVLEO
NORAD 52871·PAYLOAD·🇺🇸 United States

Lançado Jun 17, 2022 de Cape Canaveral Space Force Station

Loading…

Próximas Passagens (próximas 24 horas)

TLE

AtualizadoSource: CelesTrak SupGP

Época: Sep 15, 2026, 01:40 UTC

1 52871C 22062AT  26258.06993056 -.00052809  00000+0 -15603-2 0  2586
2 52871  53.1577 229.1560 0001253  90.2544 305.1803 15.34415489    18

Acompanhe STARLINK-4207 em tempo real com AllMySat

Download on the App Store